Regional Weather Roundup
Issued by NWS Sioux Falls, SD

Home | Current Version | Previous Version | Text Only | Print | Product List | Glossary Off
Versions: 1 2 3 4 5 6 7 8 9 10 11 12 13 14 15 16 17 18 19 20 21 22 23 24 25 26 27 28 29 30 31 32 33 34 35 36 37 38 39 40 41 42 43 44 45 46 47 48 49 50

000
ASUS43 KFSD 231702
RWRFSD

WEATHER ROUNDUP FOR SE SOUTH DAKOTA/SW MINNESOTA/NW IOWA
NATIONAL WEATHER SERVICE SIOUX FALLS SD
1200 PM CDT SAT SEP 23 2017

NOTE: "FAIR" INDICATES FEW OR NO CLOUDS BELOW 12,000 FEET WITH NO
SIGNIFICANT WEATHER AND OR OBSTRUCTIONS TO VISIBILITY.


SDZ038>040-050-052>070-231800-
SOUTHEAST SOUTH DAKOTA

CITY           SKY/WX    TMP DP  RH WIND       PRES   REMARKS
BROOKINGS      CLOUDY    64  58  80 N8        30.00R
CHAMBERLAIN    CLOUDY    55  55 100 N9        30.00F
HURON          LGT RAIN  55  55 100 NE12      29.97F
MADISON        CLOUDY    66  66 100 N8        30.00R
MITCHELL       LGT RAIN  56  55  97 N8        29.98F
SIOUX FALLS    CLOUDY    72  67  84 E6        29.97S
WINNER         CLOUDY    53  50  89 N12       30.00F
YANKTON        CLOUDY    63  58  83 N6        29.97S
$$

MNZ071-072-080-081-089-090-097-098-231800-
SOUTHWEST MINNESOTA

CITY           SKY/WX    TMP DP  RH WIND       PRES   REMARKS
JACKSON        MOSUNNY   79  68  69 S6        29.99F
LUVERNE        CLOUDY    70  61  73 E5        29.98S
MARSHALL       CLOUDY    68  58  70 N7        29.98F
MONTEVIDEO     CLOUDY    64  63  94 N8        30.00F
PIPESTONE      PTSUNNY   72  64  78 S9        29.97F
REDWOOD FALLS  CLOUDY    76  64  66 S3        29.96F
TRACY          PTSUNNY   73  66  76 SE7       29.98F
WORTHINGTON    CLOUDY    74  67  78 E6        29.98F
$$

IAZ001>003-012>014-020>022-031-032-NEZ013-014-SDZ071-231800-
NORTHWEST IOWA

CITY           SKY/WX    TMP DP  RH WIND       PRES   REMARKS
CHEROKEE       MOSUNNY   82  70  68 S14       29.96F
DENISON        PTSUNNY   84  68  58 S9        29.99F
ESTHERVILLE    SUNNY     81  70  69 S9        29.98F
LE MARS        SUNNY     81  70  69 S9G17     29.94F
ORANGE CITY    SUNNY     81  72  74 S8        29.95F
SHELDON        MOSUNNY   81  70  69 S7G15     29.95S
SIOUX CITY     SUNNY     80  70  71 S10       29.93F
SPENCER        SUNNY     83  69  62 S9        29.97F
STORM LAKE     SUNNY     82  68  61 SW14      29.99S
$$

ABBREVIATIONS USED IN REMARKS
   TC - TEMPERATURE IN CELSIUS
  WCI - WIND CHILL INDEX
   HX - HEAT INDEX
  VSB - VISIBILITY




USA.gov is the U.S. government's official web portal to all federal, state and local government web resources and services.